sat.trackr.live / text

‹ back to catalog

STARLINK-36069

NORAD 66806 · 2025-278R

PAYLOAD ACTIVE UNKNOWN

§ Identity

Operator
Country
US
Launch date
2025-12-01
Launch site
AFETR
Launch vehicle
Mass (kg)
RCS (m²)

Purposes: comms

External: N2YO · Heavens-Above · Gunter

§ Orbital elements

Epoch: 2026-05-25T01:13:59.201760Z

Period
94.27 min
Inclination
43.0052°
Eccentricity
0.0001888
Mean motion
15.27586072 rev/d
Perigee alt
481.7 km
Apogee alt
484.3 km
Semi-major
6,861.2 km
B*
6.9368e-4
RAAN
43.4646°
Arg perigee
279.6808°
Mean anomaly
80.3831°
Rev number
2,688

§ Raw data

STARLINK-360691 66806U 25278R   26145.05137965  .00018879  00000+0  69368-3 0  99912 66806  43.0052  43.4646 0001888 279.6808  80.3831 15.27586072 26884

JSON: /api/v1/satellites/66806 · /tle

For live sub-satellite position, see the globe view (requires WebGL).

§ Visibility from observer

Set your observer location to see the next 7 days of passes ≥ 10°. The values pass through the URL so the page stays shareable.

No JS? Fill the form by hand. The geolocation button needs JavaScript.